Weather History for Sherman-Denison, TX

Change the Weather History Date:

Tuesday, August 27, 2013

  Actual Average (KDFW) Record (KDFW)
Temperature  
Mean Temperature 83 °F 84 °F  
Max Temperature 94 °F 95 °F 107 °F (1901)
Min Temperature 73 °F 74 °F 61 °F (1906)
Degree Days  
Heating Degree Days 0 0  
Month to date heating degree days 0  
Since 1 June heating degree days 0  
Since 1 July heating degree days 0  
Cooling Degree Days 18 19  
Month to date cooling degree days 558  
Year to date cooling degree days 2102  
Since 1 June cooling degree days 1680  
Growing Degree Days 33 (Base 50)    
Moisture  
Dew Point 67 °F    
Average Humidity 61    
Maximum Humidity 85    
Minimum Humidity 34    
Precipitation  
Precipitation 0.00 in 0.08 in 0.81 in (1920)
Month to date precipitation 1.58  
Year to date precipitation 23.78  
Sea Level Pressure  
Sea Level Pressure 30.09 in    
Wind  
Wind Speed 7 mph (South)    
Max Wind Speed 14 mph    
Max Gust Speed 20 mph    
Visibility 10 miles    
Events      
T = Trace of Precipitation, MM = Missing Value Source: NWS Daily Summary

Daily Weather History Graph

Daily Weather History Graph

Search for Another Location

Airport:

Trip Planner

Search our weather history database for the weather conditions in past years. The results will help you decide how hot, cold, wet, or windy it might be!

Date:

Astronomy

Aug. 27, 2013 Rise Set
Actual Time 6:57 AM CDT 7:58 PM CDT
Civil Twilight 6:31 AM CDT 8:23 PM CDT
Nautical Twilight 6:01 AM CDT 8:54 PM CDT
Astronomical Twilight 5:29 AM CDT 9:25 PM CDT
Moon No Moon Rise 1:35 PM CDT (8/27)
Length of Visible Light 13h 52m
Length of Day
13h 01m
Waning Gibbous, 57% of the Moon is Illuminated
Aug 27
Waning Gibbous
Aug 28
Last Quarter
Sep 5
New
Sep 12
First Quarter
Sep 19
Full

Hourly Weather History & Observations

Time (CDT) Temp. Heat Index Dew Point Humidity Pressure Visibility Wind Dir Wind Speed Gust Speed Precip Events Conditions
12:15 AM 81.7 °F 82.7 °F 62.2 °F 52% 30.10 in 10.0 mi SSE 8.1 mph - N/A   Clear
12:35 AM 80.6 °F 81.8 °F 62.4 °F 54% 30.10 in 10.0 mi SE 6.9 mph - N/A   Clear
12:55 AM 80.6 °F 82.0 °F 63.7 °F 56% 30.10 in 10.0 mi SE 5.8 mph - N/A   Clear
1:15 AM 79.7 °F - 64.9 °F 61% 30.10 in 10.0 mi SE 5.8 mph - N/A   Clear
1:35 AM 79.0 °F - 66.0 °F 64% 30.10 in 10.0 mi SSE 4.6 mph - N/A   Clear
1:55 AM 78.6 °F - 66.7 °F 67% 30.09 in 10.0 mi SSE 5.8 mph - N/A   Clear
2:15 AM 78.3 °F - 67.3 °F 69% 30.08 in 10.0 mi SSE 4.6 mph - N/A   Clear
2:35 AM 74.7 °F - 65.3 °F 73% 30.08 in 10.0 mi Calm Calm - N/A   Clear
2:55 AM 73.6 °F - 65.7 °F 76% 30.09 in 10.0 mi SE 3.5 mph - N/A   Clear
3:15 AM 77.0 °F - 68.2 °F 74% 30.09 in 10.0 mi ESE 4.6 mph - N/A   Clear
3:35 AM 73.6 °F - 65.7 °F 76% 30.09 in 10.0 mi Calm Calm - N/A   Clear
3:55 AM 76.5 °F - 68.4 °F 76% 30.10 in 10.0 mi SE 5.8 mph - N/A   Clear
4:15 AM 76.1 °F - 68.4 °F 77% 30.10 in 10.0 mi SSE 4.6 mph - N/A   Clear
4:35 AM 75.4 °F - 68.4 °F 79% 30.10 in 10.0 mi Calm Calm - N/A   Clear
4:55 AM 75.2 °F - 68.4 °F 79% 30.11 in 10.0 mi Calm Calm - N/A   Clear
5:15 AM 75.2 °F - 68.9 °F 81% 30.11 in 10.0 mi SE 5.8 mph - N/A   Scattered Clouds
5:35 AM 74.8 °F - 68.9 °F 82% 30.11 in 10.0 mi SSE 5.8 mph - N/A   Clear
5:55 AM 74.8 °F - 69.1 °F 82% 30.11 in 10.0 mi SSE 5.8 mph - N/A   Clear
6:15 AM 74.5 °F - 69.1 °F 83% 30.12 in 10.0 mi SSE 5.8 mph - N/A   Clear
6:35 AM 74.3 °F - 69.1 °F 84% 30.12 in 10.0 mi SSE 5.8 mph - N/A   Clear
6:55 AM 73.9 °F - 69.1 °F 85% 30.13 in 10.0 mi SE 5.8 mph - N/A   Clear
7:15 AM 74.3 °F - 69.1 °F 84% 30.13 in 10.0 mi SE 4.6 mph - N/A   Clear
7:35 AM 74.5 °F - 69.4 °F 84% 30.13 in 10.0 mi SE 6.9 mph - N/A   Clear
7:55 AM 75.4 °F - 69.4 °F 82% 30.13 in 10.0 mi SE 8.1 mph - N/A   Clear
8:15 AM 75.9 °F - 69.6 °F 81% 30.14 in 10.0 mi SSE 8.1 mph - N/A   Clear
8:35 AM 76.5 °F - 69.6 °F 79% 30.14 in 10.0 mi SSE 9.2 mph - N/A   Clear
8:55 AM 78.1 °F - 69.8 °F 76% 30.14 in 10.0 mi SSE 9.2 mph - N/A   Clear
9:15 AM 78.6 °F - 69.6 °F 74% 30.14 in 10.0 mi South 10.4 mph - N/A   Clear
9:35 AM 78.4 °F - 69.4 °F 74% 30.15 in 10.0 mi SSE 10.4 mph - N/A   Clear
9:55 AM 78.3 °F - 69.3 °F 74% 30.15 in 10.0 mi SSE 10.4 mph - N/A   Scattered Clouds
10:15 AM 78.1 °F - 69.4 °F 75% 30.16 in 10.0 mi South 8.1 mph - N/A   Mostly Cloudy
10:35 AM 79.3 °F - 69.3 °F 71% 30.16 in 10.0 mi South 10.4 mph - N/A   Scattered Clouds
10:55 AM 79.9 °F - 69.1 °F 69% 30.16 in 10.0 mi South 8.1 mph - N/A   Mostly Cloudy
11:15 AM 80.8 °F 83.9 °F 69.3 °F 68% 30.15 in 10.0 mi SSE 8.1 mph - N/A   Scattered Clouds
11:35 AM 82.9 °F 86.5 °F 69.3 °F 63% 30.15 in 10.0 mi South 9.2 mph - N/A   Scattered Clouds
11:55 AM 82.9 °F 86.3 °F 68.5 °F 62% 30.14 in 10.0 mi South 3.5 mph - N/A   Mostly Cloudy
12:15 PM 84.6 °F 87.9 °F 68.2 °F 58% 30.14 in 10.0 mi SW 8.1 mph - N/A   Mostly Cloudy
12:35 PM 87.1 °F 90.6 °F 68.0 °F 53% 30.13 in 10.0 mi SW 8.1 mph - N/A   Mostly Cloudy
12:55 PM 86.9 °F 90.3 °F 67.8 °F 53% 30.13 in 10.0 mi SSE 6.9 mph - N/A   Mostly Cloudy
1:15 PM 87.8 °F 91.1 °F 67.5 °F 51% 30.11 in 10.0 mi SSE 5.8 mph - N/A   Scattered Clouds
1:35 PM 89.2 °F 92.4 °F 67.3 °F 48% 30.11 in 10.0 mi South 10.4 mph - N/A   Mostly Cloudy
1:55 PM 90.1 °F 93.1 °F 66.6 °F 46% 30.11 in 10.0 mi SW 10.4 mph - N/A   Mostly Cloudy
2:15 PM 92.3 °F 95.1 °F 66.0 °F 42% 30.10 in 10.0 mi SW 13.8 mph 17.3 mph N/A   Scattered Clouds
2:35 PM 90.5 °F 92.9 °F 65.7 °F 44% 30.10 in 10.0 mi SSW 10.4 mph 17.3 mph N/A   Mostly Cloudy
2:55 PM 91.2 °F 93.7 °F 65.7 °F 43% 30.08 in 10.0 mi SW 12.7 mph 19.6 mph N/A   Mostly Cloudy
3:15 PM 92.7 °F 94.9 °F 65.1 °F 40% 30.08 in 10.0 mi South 11.5 mph 16.1 mph N/A   Mostly Cloudy
3:35 PM 91.0 °F 92.6 °F 64.6 °F 41% 30.07 in 10.0 mi SSW 12.7 mph 18.4 mph N/A   Scattered Clouds
3:55 PM 93.6 °F 95.5 °F 64.4 °F 38% 30.07 in 10.0 mi South 8.1 mph 19.6 mph N/A   Scattered Clouds
4:15 PM 92.8 °F 94.3 °F 63.7 °F 38% 30.07 in 10.0 mi SSE 10.4 mph 16.1 mph N/A   Scattered Clouds
4:35 PM 90.7 °F 92.1 °F 63.7 °F 41% 30.06 in 10.0 mi South 12.7 mph - N/A   Mostly Cloudy
4:55 PM 91.4 °F 92.4 °F 63.0 °F 39% 30.06 in 10.0 mi South 11.5 mph - N/A   Mostly Cloudy
5:15 PM 93.6 °F 94.2 °F 62.4 °F 35% 30.05 in 10.0 mi SSW 13.8 mph - N/A   Mostly Cloudy
5:35 PM 92.7 °F 93.6 °F 62.6 °F 37% 30.05 in 10.0 mi SW 10.4 mph 17.3 mph N/A   Scattered Clouds
5:55 PM 92.8 °F 93.5 °F 62.1 °F 36% 30.05 in 10.0 mi South 8.1 mph - N/A   Clear
6:15 PM 92.8 °F 93.1 °F 61.5 °F 35% 30.04 in 10.0 mi South 9.2 mph - N/A   Clear
6:35 PM 92.1 °F 92.4 °F 61.9 °F 36% 30.03 in 10.0 mi SSW 6.9 mph - N/A   Clear
6:55 PM 92.3 °F 92.0 °F 60.4 °F 34% 30.03 in 10.0 mi SSE 6.9 mph - N/A   Scattered Clouds
7:15 PM 91.9 °F 91.5 °F 60.1 °F 34% 30.03 in 10.0 mi SSW 6.9 mph - N/A   Scattered Clouds
7:35 PM 90.7 °F 90.4 °F 60.4 °F 36% 30.03 in 10.0 mi SSW 8.1 mph - N/A   Clear
7:55 PM 88.9 °F 89.1 °F 61.7 °F 40% 30.03 in 10.0 mi SSW 8.1 mph - N/A   Clear
8:15 PM 87.3 °F 88.0 °F 62.6 °F 44% 30.04 in 10.0 mi South 5.8 mph - N/A   Clear
8:35 PM 85.5 °F 88.2 °F 67.1 °F 54% 30.04 in 10.0 mi SW 11.5 mph 19.6 mph N/A   Clear
8:55 PM 84.4 °F 87.3 °F 67.6 °F 57% 30.05 in 10.0 mi SW 8.1 mph - N/A   Clear
9:15 PM 83.5 °F 86.4 °F 67.8 °F 59% 30.05 in 10.0 mi SW 9.2 mph - N/A   Clear
9:35 PM 82.6 °F 85.5 °F 68.0 °F 61% 30.05 in 10.0 mi SW 6.9 mph - N/A   Clear
9:55 PM 81.5 °F 84.4 °F 68.2 °F 64% 30.06 in 10.0 mi South 3.5 mph - N/A   Clear
10:15 PM 80.6 °F 83.4 °F 68.2 °F 66% 30.06 in 10.0 mi SSW 3.5 mph - N/A   Clear
10:35 PM 79.7 °F - 68.0 °F 67% 30.06 in 10.0 mi SSW 3.5 mph - N/A   Clear
10:55 PM 79.3 °F - 68.0 °F 68% 30.06 in 10.0 mi SW 4.6 mph - N/A   Clear
11:15 PM 78.8 °F - 67.5 °F 68% 30.06 in 10.0 mi SW 3.5 mph - N/A   Clear
11:35 PM 77.9 °F - 67.1 °F 69% 30.06 in 10.0 mi SW 3.5 mph - N/A   Clear
11:55 PM 77.9 °F - 67.1 °F 69% 30.06 in 10.0 mi SW 4.6 mph - N/A   Clear